Location: Fort Worth, Tx
(32.7431°N, 97.3695°W)
Time: 16:36:24
(UTC-04:00)

Transit 4A - Pass Details

Date: 01 March 2024
Orbit: 871 x 972 km, 66.8° (Epoch: 21 April)

Event Time Altitude Azimuth Distance (km) Brightness Sun altitude
Rises 23:32:53 0° 162° (SSE) 3,620 - -50.6°
Reaches altitude 10° 23:36:21 10° 143° (SE) 2,663 - -51.2°
Maximum altitude 23:40:12 17° 104° (ESE) 2,167 - -51.9°
Drops below altitude 10° 23:44:00 10° 65° (ENE) 2,630 - -52.5°
Sets 23:47:23 0° 47° (NE) 3,556 - -53.1°
